Time,TemperatureF,DewpointF,PressureIn,WindDirection,WindDirectionDegrees,WindSpeedMPH,WindSpeedGustMPH,Humidity,HourlyPrecipIn,Conditions,Clouds,dailyrainin,SoftwareType,DateUTC
2013-04-26 00:00:00,51.3,47.0,30.13,SW,236,0.0,-999.0,84,-99.99,,,0.00,weatherlink.com 1.10,2013-04-26 07:00:00,
2013-04-26 00:15:00,51.3,46.0,30.14,SW,225,1.0,-999.0,83,-99.99,,,0.00,weatherlink.com 1.10,2013-04-26 07:15:00,
2013-04-26 00:30:00,51.4,46.0,30.14,SE,143,1.0,-999.0,83,-99.99,,,0.00,weatherlink.com 1.10,2013-04-26 07:30:00,
2013-04-26 00:45:00,51.6,47.0,30.14,SE,129,0.0,-999.0,83,-99.99,,,0.00,weatherlink.com 1.10,2013-04-26 07:45:00,
2013-04-26 01:00:00,51.6,47.0,30.13,SSE,151,0.0,-999.0,83,-99.99,,,0.00,weatherlink.com 1.10,2013-04-26 08:00:00,
2013-04-26 01:15:00,51.4,46.0,30.14,South,188,0.0,-999.0,83,-99.99,,,0.00,weatherlink.com 1.10,2013-04-26 08:15:00,
2013-04-26 01:30:00,51.7,47.0,30.13,SSW,194,0.0,-999.0,83,-99.99,,,0.00,weatherlink.com 1.10,2013-04-26 08:30:00,
2013-04-26 01:45:00,51.7,46.0,30.13,North,360,0.0,-999.0,82,-99.99,,,0.00,weatherlink.com 1.10,2013-04-26 08:45:00,
2013-04-26 02:00:00,51.9,46.0,30.13,WSW,240,0.0,-999.0,81,-99.99,,,0.00,weatherlink.com 1.10,2013-04-26 09:00:00,
2013-04-26 02:15:00,52.0,46.0,30.13,SW,235,0.0,-999.0,81,-99.99,,,0.00,weatherlink.com 1.10,2013-04-26 09:15:00,
2013-04-26 02:31:00,52.0,46.0,30.12,South,186,0.0,-999.0,81,-99.99,,,0.00,weatherlink.com 1.10,2013-04-26 09:31:00,
2013-04-26 02:46:00,52.0,47.0,30.12,ESE,105,0.0,-999.0,82,-99.99,,,0.00,weatherlink.com 1.10,2013-04-26 09:46:00,
2013-04-26 03:01:00,52.0,47.0,30.13,South,181,0.0,-999.0,82,-99.99,,,0.00,weatherlink.com 1.10,2013-04-26 10:01:00,
2013-04-26 03:16:00,51.9,47.0,30.13,South,181,0.0,-999.0,82,-99.99,,,0.00,weatherlink.com 1.10,2013-04-26 10:16:00,
2013-04-26 03:31:00,51.7,47.0,30.14,SE,143,0.0,-999.0,83,-99.99,,,0.00,weatherlink.com 1.10,2013-04-26 10:31:00,
2013-04-26 03:46:00,51.6,47.0,30.14,SW,227,0.0,-999.0,84,-99.99,,,0.00,weatherlink.com 1.10,2013-04-26 10:46:00,
2013-04-26 04:01:00,51.7,47.0,30.14,SW,225,0.0,-999.0,84,-99.99,,,0.00,weatherlink.com 1.10,2013-04-26 11:01:00,
2013-04-26 04:16:00,51.7,47.0,30.14,South,184,2.0,-999.0,84,-99.99,,,0.00,weatherlink.com 1.10,2013-04-26 11:16:00,
2013-04-26 04:31:00,51.7,47.0,30.14,SE,145,2.0,-999.0,83,-99.99,,,0.00,weatherlink.com 1.10,2013-04-26 11:31:00,
2013-04-26 04:46:00,51.7,46.0,30.14,ESE,122,0.0,-999.0,82,-99.99,,,0.00,weatherlink.com 1.10,2013-04-26 11:46:00,
2013-04-26 05:01:00,51.7,46.0,30.14,SSE,163,2.0,-999.0,82,-99.99,,,0.00,weatherlink.com 1.10,2013-04-26 12:01:00,
2013-04-26 05:16:00,51.7,46.0,30.14,South,179,0.0,-999.0,82,-99.99,,,0.00,weatherlink.com 1.10,2013-04-26 12:16:00,
2013-04-26 05:31:00,51.7,46.0,30.14,SSE,163,1.0,-999.0,82,-99.99,,,0.00,weatherlink.com 1.10,2013-04-26 12:31:00,
2013-04-26 05:46:00,51.7,46.0,30.15,SSW,209,0.0,-999.0,82,-99.99,,,0.00,weatherlink.com 1.10,2013-04-26 12:46:00,
2013-04-26 06:01:00,51.6,46.0,30.15,South,178,1.0,-999.0,82,-99.99,,,0.00,weatherlink.com 1.10,2013-04-26 13:01:00,
2013-04-26 06:16:00,51.6,46.0,30.15,SE,145,1.0,-999.0,82,-99.99,,,0.00,weatherlink.com 1.10,2013-04-26 13:16:00,
2013-04-26 06:31:00,51.6,46.0,30.16,South,175,0.0,-999.0,82,-99.99,,,0.00,weatherlink.com 1.10,2013-04-26 13:31:00,
2013-04-26 06:46:00,51.6,46.0,30.16,WSW,248,0.0,-999.0,82,-99.99,,,0.00,weatherlink.com 1.10,2013-04-26 13:46:00,
2013-04-26 07:01:00,51.7,46.0,30.17,SE,134,1.0,-999.0,82,-99.99,,,0.00,weatherlink.com 1.10,2013-04-26 14:01:00,
2013-04-26 07:16:00,51.7,46.0,30.18,SSE,158,0.0,-999.0,82,-99.99,,,0.00,weatherlink.com 1.10,2013-04-26 14:16:00,
2013-04-26 07:31:00,51.7,46.0,30.19,SSE,160,0.0,-999.0,82,-99.99,,,0.00,weatherlink.com 1.10,2013-04-26 14:31:00,
2013-04-26 07:46:00,52.0,47.0,30.20,SSE,168,1.0,-999.0,82,-99.99,,,0.00,weatherlink.com 1.10,2013-04-26 14:46:00,
2013-04-26 08:01:00,52.3,47.0,30.20,SW,223,0.0,-999.0,81,-99.99,,,0.00,weatherlink.com 1.10,2013-04-26 15:01:00,
2013-04-26 08:16:00,52.5,47.0,30.21,SSE,150,0.0,-999.0,81,-99.99,,,0.00,weatherlink.com 1.10,2013-04-26 15:16:00,
2013-04-26 08:31:00,52.9,47.0,30.21,SSE,155,0.0,-999.0,80,-99.99,,,0.00,weatherlink.com 1.10,2013-04-26 15:31:00,
2013-04-26 08:46:00,53.2,47.0,30.21,WSW,255,1.0,-999.0,79,-99.99,,,0.00,weatherlink.com 1.10,2013-04-26 15:46:00,
2013-04-26 09:01:00,53.5,47.0,30.21,SSE,157,0.0,-999.0,78,-99.99,,,0.00,weatherlink.com 1.10,2013-04-26 16:01:00,
2013-04-26 09:16:00,54.2,47.0,30.21,ESE,115,0.0,-999.0,77,-99.99,,,0.00,weatherlink.com 1.10,2013-04-26 16:16:00,
2013-04-26 09:31:00,55.1,47.0,30.22,SE,142,0.0,-999.0,75,-99.99,,,0.00,weatherlink.com 1.10,2013-04-26 16:31:00,
2013-04-26 09:46:00,55.3,48.0,30.22,SW,229,0.0,-999.0,75,-99.99,,,0.00,weatherlink.com 1.10,2013-04-26 16:46:00,
2013-04-26 10:01:00,56.3,48.0,30.22,WSW,240,0.0,-999.0,73,-99.99,,,0.00,weatherlink.com 1.10,2013-04-26 17:01:00,
2013-04-26 10:16:00,57.8,48.0,30.23,WSW,246,0.0,-999.0,70,-99.99,,,0.00,weatherlink.com 1.10,2013-04-26 17:16:00,
2013-04-26 10:31:00,58.1,48.0,30.23,SW,224,0.0,-999.0,68,-99.99,,,0.00,weatherlink.com 1.10,2013-04-26 17:31:00,
2013-04-26 10:46:00,58.1,48.0,30.23,SE,144,0.0,-999.0,68,-99.99,,,0.00,weatherlink.com 1.10,2013-04-26 17:46:00,
2013-04-26 11:01:00,58.4,48.0,30.23,SE,139,0.0,-999.0,68,-99.99,,,0.00,weatherlink.com 1.10,2013-04-26 18:01:00,
2013-04-26 11:16:00,58.9,47.0,30.23,SSE,159,1.0,-999.0,66,-99.99,,,0.00,weatherlink.com 1.10,2013-04-26 18:16:00,
2013-04-26 11:31:00,58.9,47.0,30.23,WSW,248,0.0,-999.0,66,-99.99,,,0.00,weatherlink.com 1.10,2013-04-26 18:31:00,
2013-04-26 11:46:00,59.8,47.0,30.23,South,175,0.0,-999.0,64,-99.99,,,0.00,weatherlink.com 1.10,2013-04-26 18:46:00,
2013-04-26 12:01:00,59.9,48.0,30.23,WSW,238,0.0,-999.0,64,-99.99,,,0.00,weatherlink.com 1.10,2013-04-26 19:01:00,
2013-04-26 12:16:00,60.7,47.0,30.23,SSW,194,0.0,-999.0,62,-99.99,,,0.00,weatherlink.com 1.10,2013-04-26 19:16:00,
2013-04-26 12:31:00,61.0,48.0,30.22,WSW,255,0.0,-999.0,62,-99.99,,,0.00,weatherlink.com 1.10,2013-04-26 19:31:00,
2013-04-26 12:46:00,61.5,48.0,30.22,SSW,204,0.0,-999.0,62,-99.99,,,0.00,weatherlink.com 1.10,2013-04-26 19:46:00,
2013-04-26 13:01:00,61.8,48.0,30.21,SW,217,2.0,-999.0,62,-99.99,,,0.00,weatherlink.com 1.10,2013-04-26 20:01:00,
2013-04-26 13:16:00,61.3,48.0,30.21,WSW,240,0.0,-999.0,62,-99.99,,,0.00,weatherlink.com 1.10,2013-04-26 20:16:00,
2013-04-26 13:31:00,62.7,48.0,30.21,ESE,112,0.0,-999.0,59,-99.99,,,0.00,weatherlink.com 1.10,2013-04-26 20:31:00,
2013-04-26 13:46:00,62.7,49.0,30.21,SSW,196,1.0,-999.0,61,-99.99,,,0.00,weatherlink.com 1.10,2013-04-26 20:46:00,
2013-04-26 14:01:00,63.1,48.0,30.21,ESE,120,0.0,-999.0,59,-99.99,,,0.00,weatherlink.com 1.10,2013-04-26 21:01:00,
2013-04-26 14:16:00,62.9,49.0,30.21,South,182,0.0,-999.0,60,-99.99,,,0.00,weatherlink.com 1.10,2013-04-26 21:16:00,
2013-04-26 14:31:00,63.2,48.0,30.21,West,260,0.0,-999.0,59,-99.99,,,0.00,weatherlink.com 1.10,2013-04-26 21:31:00,
2013-04-26 14:46:00,63.7,49.0,30.20,WSW,256,2.0,-999.0,59,-99.99,,,0.00,weatherlink.com 1.10,2013-04-26 21:46:00,
2013-04-26 15:01:00,63.4,49.0,30.20,South,188,1.0,-999.0,59,-99.99,,,0.00,weatherlink.com 1.10,2013-04-26 22:01:00,
2013-04-26 15:16:00,62.4,49.0,30.20,WSW,257,0.0,-999.0,61,-99.99,,,0.00,weatherlink.com 1.10,2013-04-26 22:16:00,
2013-04-26 15:31:00,62.9,49.0,30.20,SW,215,1.0,-999.0,60,-99.99,,,0.00,weatherlink.com 1.10,2013-04-26 22:31:00,
2013-04-26 15:46:00,62.7,49.0,30.20,West,273,2.0,-999.0,61,-99.99,,,0.00,weatherlink.com 1.10,2013-04-26 22:46:00,
2013-04-26 16:02:00,62.6,49.0,30.20,SE,136,1.0,-999.0,61,-99.99,,,0.00,weatherlink.com 1.10,2013-04-26 23:02:00,
2013-04-26 16:17:00,61.5,49.0,30.20,SSE,155,1.0,-999.0,63,-99.99,,,0.00,weatherlink.com 1.10,2013-04-26 23:17:00,
2013-04-26 16:32:00,60.4,48.0,30.20,SW,225,2.0,-999.0,65,-99.99,,,0.00,weatherlink.com 1.10,2013-04-26 23:32:00,
2013-04-26 16:47:00,60.1,49.0,30.20,SSE,157,0.0,-999.0,66,-99.99,,,0.00,weatherlink.com 1.10,2013-04-26 23:47:00,
2013-04-26 17:17:00,59.3,48.0,30.20,ESE,115,1.0,-999.0,67,-99.99,,,0.00,weatherlink.com 1.10,2013-04-27 00:17:00,
2013-04-26 17:32:00,59.0,48.0,30.20,SSW,211,0.0,-999.0,68,-99.99,,,0.00,weatherlink.com 1.10,2013-04-27 00:32:00,
2013-04-26 17:47:00,58.3,48.0,30.20,West,259,0.0,-999.0,69,-99.99,,,0.00,weatherlink.com 1.10,2013-04-27 00:47:00,
2013-04-26 18:02:00,59.0,48.0,30.20,WSW,256,2.0,-999.0,68,-99.99,,,0.00,weatherlink.com 1.10,2013-04-27 01:02:00,
2013-04-26 18:17:00,58.3,48.0,30.20,WSW,255,2.0,-999.0,68,-99.99,,,0.00,weatherlink.com 1.10,2013-04-27 01:17:00,
2013-04-26 18:32:00,56.9,48.0,30.19,SW,234,1.0,-999.0,72,-99.99,,,0.00,weatherlink.com 1.10,2013-04-27 01:32:00,
2013-04-26 18:47:00,55.7,48.0,30.20,SE,127,0.0,-999.0,74,-99.99,,,0.00,weatherlink.com 1.10,2013-04-27 01:47:00,
2013-04-26 19:02:00,54.7,48.0,30.20,SW,225,0.0,-999.0,77,-99.99,,,0.00,weatherlink.com 1.10,2013-04-27 02:02:00,
2013-04-26 19:17:00,53.9,48.0,30.20,WSW,240,1.0,-999.0,79,-99.99,,,0.00,weatherlink.com 1.10,2013-04-27 02:17:00,
2013-04-26 19:32:00,53.6,48.0,30.20,ESE,123,0.0,-999.0,80,-99.99,,,0.00,weatherlink.com 1.10,2013-04-27 02:32:00,
2013-04-26 19:47:00,53.2,48.0,30.20,ESE,103,0.0,-999.0,81,-99.99,,,0.00,weatherlink.com 1.10,2013-04-27 02:47:00,
2013-04-26 20:02:00,52.8,47.0,30.19,SSE,161,0.0,-999.0,81,-99.99,,,0.00,weatherlink.com 1.10,2013-04-27 03:02:00,
2013-04-26 20:17:00,52.6,47.0,30.20,SSE,154,0.0,-999.0,81,-99.99,,,0.00,weatherlink.com 1.10,2013-04-27 03:17:00,
2013-04-26 20:32:00,52.5,47.0,30.20,SSE,163,0.0,-999.0,82,-99.99,,,0.00,weatherlink.com 1.10,2013-04-27 03:32:00,
2013-04-26 20:47:00,52.5,48.0,30.20,SSW,205,0.0,-999.0,83,-99.99,,,0.00,weatherlink.com 1.10,2013-04-27 03:47:00,
2013-04-26 21:02:00,52.2,48.0,30.21,WSW,252,0.0,-999.0,84,-99.99,,,0.00,weatherlink.com 1.10,2013-04-27 04:02:00,
2013-04-26 21:17:00,51.9,47.0,30.21,SSW,194,0.0,-999.0,84,-99.99,,,0.00,weatherlink.com 1.10,2013-04-27 04:17:00,
2013-04-26 21:32:00,51.3,47.0,30.21,SE,139,0.0,-999.0,85,-99.99,,,0.00,weatherlink.com 1.10,2013-04-27 04:32:00,
2013-04-26 21:47:00,51.1,47.0,30.21,SSW,202,0.0,-999.0,86,-99.99,,,0.00,weatherlink.com 1.10,2013-04-27 04:47:00,
2013-04-26 22:02:00,51.0,47.0,30.22,South,173,0.0,-999.0,87,-99.99,,,0.00,weatherlink.com 1.10,2013-04-27 05:02:00,
2013-04-26 22:17:00,51.1,47.0,30.22,SE,124,0.0,-999.0,87,-99.99,,,0.00,weatherlink.com 1.10,2013-04-27 05:17:00,
2013-04-26 22:32:00,51.3,48.0,30.22,SSE,162,1.0,-999.0,87,-99.99,,,0.00,weatherlink.com 1.10,2013-04-27 05:32:00,
2013-04-26 22:47:00,51.1,47.0,30.23,SW,217,0.0,-999.0,86,-99.99,,,0.00,weatherlink.com 1.10,2013-04-27 05:47:00,
2013-04-26 23:02:00,51.0,47.0,30.23,ENE,73,0.0,-999.0,86,-99.99,,,0.00,weatherlink.com 1.10,2013-04-27 06:02:00,
2013-04-26 23:17:00,50.7,47.0,30.22,WSW,242,0.0,-999.0,86,-99.99,,,0.00,weatherlink.com 1.10,2013-04-27 06:17:00,
2013-04-26 23:32:00,50.7,47.0,30.23,WSW,248,1.0,-999.0,86,-99.99,,,0.00,weatherlink.com 1.10,2013-04-27 06:32:00,
2013-04-26 23:47:00,50.7,47.0,30.23,SSE,157,0.0,-999.0,86,-99.99,,,0.00,weatherlink.com 1.10,2013-04-27 06:47:00,